Regional Weather Roundup
Issued by NWS Austin/San Antonio, TX

Home | Current Version | Previous Version | Text Only | Print | Product List | Glossary On
Versions: 1 2 3 4 5 6 7 8 9 10 11 12 13 14 15 16 17 18 19 20 21 22 23 24 25 26 27 28 29 30 31 32 33 34 35 36 37 38 39 40 41 42 43 44 45 46 47 48 49 50
861
ASUS44 KEWX 250101
RWREWX
SOUTH TEXAS REGIONAL WEATHER ROUNDUP
NATIONAL WEATHER SERVICE AUSTIN/SAN ANTONIO TX
800 PM CDT THU MAY 24 2018

NOTE: "FAIR" INDICATED FEW OR NO CLOUDS BELOW 12,000 FEET WITH NO
SIGNIFICANT WEATHER AND/OR OBSTRUCTIONS TO VISIBILITY.

* - THESE STATIONS ARE NOT NWS OR FAA STATIONS...AND ARE NOT SUBJECT
    TO NWS AND FAA QUALITY CONTROL.

TXZ171-172-183>190-250200-
TEXAS HILL COUNTRY AND EDWARDS PLATEAU

CITY           SKY/WX    TMP DP  RH WIND       PRES   REMARKS
JUNCTION       CLEAR     88  62  41 SE7       30.00R
*LLANO           N/A    N/A N/A N/A MISG        N/A
BURNET         CLEAR     87  64  46 SE5       30.00S
*HORSESHOE BAY MOCLDY    88  64  44 SE5       29.98S
*KERRVILLE     CLEAR     85  64  48 SE7       30.01R
*FREDERICKSBRG CLEAR     85  59  40 CALM      30.01R
*ROCKSPRINGS   CLEAR     82  61  47 S12       30.08R
*BOERNE STAGE  CLEAR     82  61  47 S3        30.01R
*CASTROVILLE   CLEAR     88  62  41 CALM      29.97S
HONDO          CLEAR     87  67  51 E6        29.97S HX  90
*UVALDE        CLEAR     85  66  51 E6        29.97R
DEL RIO        CLEAR     92  64  39 E10       29.92R HX  93
LAUGHLIN AFB   MOCLDY    90  65  42 E12       29.93R HX  92
CARRIZO SPRGS  CLEAR     91  61  35 SE5       29.91R HX  91
*EAGLE PASS    CLEAR     93  59  31 E9        29.93R HX  92
*FAITH RANCH   CLEAR     95  59  30 E8G15     29.92R HX  94
$$

TXZ173-191>194-202-209-217>225-228-250200-
CENTRAL AND SOUTH CENTRAL TEXAS

CITY           SKY/WX    TMP DP  RH WIND       PRES   REMARKS
GEORGETOWN     PTCLDY    87  67  51 E6        29.99S HX  90
AUSTIN/BERGSTM PTCLDY    87  69  54 E7        29.95S HX  91
AUSTIN/MABRY   CLEAR     87  67  51 SE8       29.97S HX  90
*AUSTIN/EXEC   CLEAR     84  70  61 MISG      29.97S
*LAGO VISTA    CLEAR     86  65  49 CALM      30.00S
SAN MARCOS     PTCLDY    86  71  60 SE14      29.97R HX  91
NEW BRAUNFELS  CLEAR     86  70  58 SE10      29.95R HX  90
RANDOLPH AFB   CLEAR     86  68  54 E6        29.96S
PT SAN ANTONIO CLEAR     89  64  43 SE7       29.94S HX  90
SAN ANTONIO    PTCLDY    88  62  41 SE7       29.96S
STINSON FIELD  CLEAR     91  65  41 SE5       29.93S HX  93
*LA GRANGE     PTCLDY    83  72  69 S6        29.95S
*GIDDINGS      PTCLDY    82  70  67 SE6       29.98R
*GONZALES      CLEAR     87  70  56 SE7       29.95F HX  92
$$

TXZ163>164-176>182-195>201-210>213-226-227-235-250200-
SOUTHEAST TEXAS

CITY           SKY/WX    TMP DP  RH WIND       PRES   REMARKS
COLLEGE STN    PTCLDY    85  72  65 SE13      29.97S HX  91
*BRYAN         CLEAR     82  71  70 E6        29.98S
*CALDWELL      CLEAR     85  70  59 E5        29.97S HX  90
*CROCKETT      PTCLDY    84  68  58 SE5       30.01S
*BRENHAM       CLEAR     83  71  66 S8        29.99R
HUNTSVILLE     CLEAR     85  70  60 S5        29.99R
CONROE         CLEAR     81  75  82 E6        29.99S
HOUSTON BUSH   FAIR      82  72  71 SE13      29.98S
HOUSTON HOBBY  MOCLDY    80  71  74 SE7       29.98S
*HOUSTON SW AP FAIR      78  71  78 CALM      30.00S
PEARLAND       FAIR      82  72  71 S7        30.00S
HOUSTON HOOKS  FAIR      83  71  67 SE5       29.98S
ELLINGTON FLD  PTCLDY    82  72  69 E6        30.00S
SUGAR LAND     FAIR      82  73  74 S12       29.99R
*HOUSTON EXEC    N/A     81  73  78 S9        29.99S
*CLEVELAND MUN FAIR      80  69  71 CALM      30.00S
*WHARTON       CLEAR     79  72  77 E5        29.99R
*COLUMBUS      FAIR      79  70  74 E3        29.99S
*EAGLE LAKE    CLEAR     78  74  88 SE3       29.98S
$$

TXZ214>216-236>238-250200-
THE UPPER TEXAS COAST

CITY           SKY/WX    TMP DP  RH WIND       PRES   REMARKS
*ORANGE        FAIR      81  73  76 S6        30.01R
PORT ARTHUR    FAIR      81  71  71 S7        29.99S
GALVESTON      FAIR      80  73  79 E12       29.99F
ANGLETON       FAIR      81  72  74 SE6       29.98F
*BAY CITY      CLEAR     82  74  75 E7        29.98S
PALACIOS       PTCLDY    82  76  81 SE10      29.97S
$$

TXZ229>234-239>247-250200-
TEXAS COASTAL BEND AND RIO GRANDE PLAINS

CITY           SKY/WX    TMP DP  RH WIND       PRES   REMARKS
VICTORIA       CLEAR     84  70  62 SE10      29.97R
*BEEVILLE      CLEAR     84  71  63 SE9       29.95S
ROCKPORT       CLEAR     81  73  76 SE10      29.95S
*PORT ARANSAS  NOT AVBL
*PORT LAVACA   PTCLDY    81  73  76 SE13      29.97R
*INGLESIDE     CLEAR     83  74  73 S9        29.96S
CORPUS CHRISTI PTCLDY    83  73  72 SE14      29.95F
CORPUS NAS     PTCLDY    83  75  77 SE12      29.95F HX  90
*ROBSTOWN      CLEAR     82  73  75 SE13      29.95F
ALICE          CLEAR     84  71  65 SE15      29.94S
KINGSVILLE NAS PTCLDY    83  73  72 SE13      29.95S
COTULLA        PTCLDY    93  62  35 E8        29.92R HX  93
LAREDO         PTCLDY    96  62  32 E8        29.91R HX  97
$$

TXZ248>255-250200-
DEEP SOUTH TEXAS

CITY           SKY/WX    TMP DP  RH WIND       PRES   REMARKS
BROWNSVILLE    FAIR      84  75  74 SE10      29.96S HX  92
PORT ISABEL    MOCLDY    83  74  74 SE14      29.95F
*SOUTH PADRE   NOT AVBL
HARLINGEN      PTCLDY    83  74  74 SE15      29.94S
*HEBBRONVILLE  CLEAR     87  68  51 SE15      29.95S HX  91
MCALLEN        PTCLDY    89  74  60 E17       29.94R HX  98
*WESLACO       NOT AVBL
FALFURRIAS     CLEAR     87  71  59 SE10      29.94S HX  92
EDINBURG       FAIR      88  70  55 E13       29.94S HX  92
*ZAPATA        FAIR      94  62  33 SE5       29.90S HX  94
$$

TXZ213>215-236>238-242>244-246-247-251-254-255-250200-
CMAN STATIONS

STATION/POSITION TIME  TEMP    WIND        PRES    WAVE
                       AIR SEA DIR/SP/G            HT/PER
                 (UTC) (F)     (DEG/KT/KT) (MB)    (FT/S)
SABINE PASS      0030   82 87  160/  8/ 11 1017.2
SEA RIM ST PARK  0000   80     180/  7/  9 1016.1
NORTH JETTY/GLS  0024   80 84  130/ 10/ 12 1015.0
EAGLE POINT      0024   81 84  180/ 12/ 14 1015.4
MORGANS POINT    0030   81 84  150/  5/  8 1015.3
PORT O`CONNOR    0030   82 85  110/ 10/ 13 1014.6
PORT ARANSAS     0000   81 84  110/ 13/ 14 1014.5
MALAQUITE BEACH  0030   81 85   90/ 12/ 13 1014.0
BAFFIN BAY       0030   81 88   80/ 13/ 17 1014.5
PORT ISABEL      0030   82 84  100/ 12/ 16 1014.5
$$




USA.gov is the U.S. government's official web portal to all federal, state and local government web resources and services.